Weather History for KSLE - May, 2012

Change the Weather History Date:

Thursday, May 17, 2012

  Actual Average Record
Temperature  
Mean Temperature 55 °F 57 °F  
Max Temperature 68 °F 68 °F 95 °F (1956)
Min Temperature 41 °F 45 °F 31 °F (1966)
Degree Days  
Heating Degree Days 10 9  
Month to date heating degree days 167 176  
Since 1 July heating degree days 4292 4419  
Cooling Degree Days 0 0  
Month to date cooling degree days 1 0  
Year to date cooling degree days 3 0  
Growing Degree Days 4 (Base 50)    
Moisture  
Dew Point 37 °F    
Average Humidity 57    
Maximum Humidity 83    
Minimum Humidity 31    
Precipitation  
Precipitation 0.00 in 0.07 in 1.76 in (1991)
Month to date precipitation 0.86 1.21  
Year to date precipitation 28.38 18.53  
Snow  
Snow 0.00 in - - ()
Month to date snowfall 0.0  
Snow Depth 0.00 in    
Sea Level Pressure  
Sea Level Pressure 30.08 in    
Wind  
Wind Speed 6 mph (NW)    
Max Wind Speed 16 mph    
Max Gust Speed 21 mph    
Visibility 10 miles    
Events      
T = Trace of Precipitation, MM = Missing Value Source: NWS Daily Summary

Daily Weather History Graph

Daily Weather History Graph

Search for Another Location

Airport or City:

Trip Planner

Search our weather history database for the weather conditions in past years. The results will help you decide how hot, cold, wet, or windy it might be!

Date:

Astronomy

May. 17, 2012 Rise Set
Actual Time 5:40 AM PDT 8:37 PM PDT
Civil Twilight 5:05 AM PDT 9:11 PM PDT
Nautical Twilight 4:22 AM PDT 9:55 PM PDT
Astronomical Twilight 3:30 AM PDT 10:48 PM PDT
Moon 3:48 AM PDT (5/17) 5:49 PM PDT (5/17)
Length of Visible Light 16h 05m
Length of Day
14h 56m
Waning Crescent, 9% of the Moon is Illuminated
May 17
Waning Crescent
May 20
New
May 28
First Quarter
Jun 4
Full
Jun 11
Last Quarter

Hourly Weather History & Observations

Time (PDT) Temp. Windchill Dew Point Humidity Pressure Visibility Wind Dir Wind Speed Gust Speed Precip Events Conditions
12:56 AM 48.0 °F - 35.1 °F 61% 30.08 in 10.0 mi NW 5.8 mph - N/A   Clear
1:56 AM 42.1 °F - 34.0 °F 73% 30.08 in 10.0 mi Calm Calm - N/A   Clear
2:56 AM 41.0 °F - 34.0 °F 76% 30.08 in 10.0 mi Calm Calm - N/A   Clear
4:56 AM 41.0 °F - 36.0 °F 82% 30.09 in 10.0 mi Calm Calm - N/A   Clear
5:56 AM 42.1 °F - 37.0 °F 82% 30.09 in 10.0 mi Calm Calm - N/A   Clear
6:56 AM 44.1 °F 41.5 °F 39.0 °F 82% 30.09 in 10.0 mi NNW 4.6 mph - N/A   Clear
7:56 AM 48.9 °F - 39.0 °F 69% 30.10 in 10.0 mi NW 5.8 mph - N/A   Clear
8:56 AM 51.1 °F - 39.0 °F 63% 30.10 in 10.0 mi NW 5.8 mph - N/A   Clear
9:56 AM 53.1 °F - 39.0 °F 59% 30.09 in 10.0 mi WNW 6.9 mph - N/A   Clear
10:56 AM 55.0 °F - 37.9 °F 53% 30.09 in 10.0 mi NNW 4.6 mph - N/A   Clear
11:56 AM 59.0 °F - 37.0 °F 44% 30.08 in 10.0 mi Variable 6.9 mph - N/A   Clear
12:56 PM 63.0 °F - 36.0 °F 37% 30.07 in 10.0 mi North 8.1 mph - N/A   Clear
1:56 PM 64.0 °F - 33.1 °F 31% 30.05 in 10.0 mi North 8.1 mph - N/A   Clear
2:56 PM 64.0 °F - 37.9 °F 38% 30.04 in 10.0 mi NNW 9.2 mph - N/A   Clear
3:56 PM 66.9 °F - 39.0 °F 36% 30.03 in 10.0 mi West 10.4 mph - N/A   Mostly Cloudy
5:56 PM 63.0 °F - 39.0 °F 41% 30.03 in 10.0 mi West 12.7 mph 19.6 mph N/A   Clear
6:56 PM 60.1 °F - 37.9 °F 44% 30.04 in 10.0 mi West 13.8 mph - N/A   Clear
7:56 PM 57.0 °F - 37.9 °F 49% 30.05 in 10.0 mi West 10.4 mph - N/A   Clear
8:56 PM 53.1 °F - 37.9 °F 57% 30.07 in 10.0 mi WNW 6.9 mph - N/A   Clear
9:56 PM 50.0 °F - 39.0 °F 66% 30.10 in 10.0 mi West 13.8 mph 18.4 mph N/A   Mostly Cloudy
10:56 PM 48.0 °F - 37.9 °F 68% 30.12 in 10.0 mi WNW 9.2 mph - N/A   Partly Cloudy
11:56 PM 46.0 °F 43.9 °F 37.0 °F 71% 30.13 in 10.0 mi NW 4.6 mph - N/A   Clear